Regional Weather Roundup
Issued by NWS Cleveland, OH

Home | Current Version | Previous Version | Graphics & Text | Print | Product List | Glossary On
Versions: 1 2 3 4 5 6 7 8 9 10 11 12 13 14 15 16 17 18 19 20 21 22 23 24 25 26 27 28 29 30 31 32 33 34 35 36 37 38 39 40 41 42 43 44 45 46 47 48 49 50
970
ASUS41 KCLE 290002
RWRCLE
OHIO REGIONAL WEATHER ROUNDUP
NATIONAL WEATHER SERVICE CLEVELAND, OH
800 PM EDT FRI APR 28 2017

NOTE: "FAIR" INDICATES FEW OR NO CLOUDS BELOW 12,000 FEET WITH NO
SIGNIFICANT WEATHER AND/OR OBSTRUCTIONS TO VISIBILITY.

OHZ001>008-015>018-024>027-034-035-043-044-290100-
   NORTHWEST OHIO

CITY           SKY/WX    TMP DP  RH WIND       PRES   REMARKS
DEFIANCE       LGT RAIN  54  48  80 SE6       29.94S
FINDLAY        RAIN      56  47  71 SE10      29.92F
TOLEDO EXPRESS LGT RAIN  54  51  90 SE3       29.96R
TOLEDO EXEC    CLOUDY    57  52  83 S9        29.97R
LIMA           LGT RAIN  55  52  89 E10       29.93F
$$

OHZ009>014-019>023-028>033-038-089-290100-
   NORTHEAST OHIO

CITY           SKY/WX    TMP DP  RH WIND       PRES   REMARKS
CLE-HOPKINS    CLOUDY    60  51  72 SW6       30.08R
CLE-LAKEFRONT  CLOUDY    60  51  72 S7        30.04R
CUY CO. ARPT   CLOUDY    59  54  82 S8        30.04R
LORAIN-ELYRIA  LGT RAIN  57  49  74 S9        30.03R
ASHTABULA      CLOUDY    58  52  80 S5        30.03F
AKRON-CANTON   CLOUDY    62  48  60 NE8       30.01S
WOOSTER        CLOUDY    59  51  75 N8        30.06R
MANSFIELD      CLOUDY    59  50  72 N7        30.04R
YOUNGSTOWN     CLOUDY    60  48  64 NE3       30.02F
$$

OHZ042-051>053-060>062-070>072-077>081-290100-
  SOUTHWEST OHIO

CITY           SKY/WX    TMP DP  RH WIND       PRES   REMARKS
CINC-COVINGTON LGT RAIN  70  59  68 SE3       29.85F
CINC-LUNKEN    CLOUDY    66  65  96 CALM      29.84F
HAMILTON       RAIN      63  59  87 NE10G23   29.87R
DAYTON         TSTM      58  55  90 E10       29.90F FOG
WRIGHT-PAT AFB TSTM      59  59 100 NE18      29.91R VSB 3/4
DAYTON GENERAL TSTM      59  56  89 NE18G38   29.88R FOG
WILMINGTON     LGT RAIN  67  57  70 E7        29.87F
$$

OHZ036-037-039>041-045>050-054>059-063>069-073>076-082>088-290100-
  CENTRAL AND SOUTHEAST OHIO

CITY           SKY/WX    TMP DP  RH WIND       PRES   REMARKS
COLUMBUS       LGT RAIN  68  50  52 NE13      29.92S
OSU AIRPORT    LGT RAIN  65  52  62 N12       29.94S
BOLTON FIELD   NOT AVBL
RICKENBACK AFB CLOUDY    67  55  64 NE8       29.90F
NEWARK         CLOUDY    68  48  48 VRB3      29.94F
MARION         LGT RAIN  57  51  80 E15       29.96F
LANCASTER      CLOUDY    71  53  52 E9        29.91F
ZANESVILLE     CLOUDY    69  48  47 NE5       29.95F
NEW PHILLY     NOT AVBL
$$




USA.gov is the U.S. government's official web portal to all federal, state and local government web resources and services.